{"data":{"norad_id":65800,"epoch":"2026-09-20T13:45:53.968320Z","epoch_age_seconds":99802,"freshness":"FRESH","line1":"1 65800U 25218K   26263.57354130  .00009921  00000+0  30914-3 0  9994","line2":"2 65800  97.2846 120.9241 0000872  76.2527 283.8813 15.33452432 54343","mean_motion":15.33452432,"eccentricity":8.72e-5,"inclination_deg":97.2846,"raan_deg":120.9241,"arg_perigee_deg":76.2527,"mean_anomaly_deg":283.8813,"bstar":0.00030914,"rev_number":5434,"period_min":93.905749532895,"perigee_km":464.92429518127,"apogee_km":466.11782914732,"semimajor_km":6843.6580621643,"source":"CELESTRAK","updated_at":"2026-09-21T09:00:35.715124Z"}}